User: anonymous   Login
Location: Unspecified
(0.0000°N, 0.0000°E)
Time: 03:36:41
(UTC+00:00)
Language:

PAYLOAD G - Orbit

View from above orbital plane
View from above orbital plane
View from above satellite
View from above satellite

Ground track
Ground track

The orbit data is extracted from the following two-line orbital elements,

1 27846U 03031G   17112.52352664 +.00000087 +00000-0 +59018-4 0  9991
2 27846 098.6839 121.1743 0010296 119.0547 241.1663 14.22100189716405
Epoch (UTC): 22 April 2017 12:33:52
Eccentricity: 0.0010296
inclination: 98.6839°
perigee height: 811 km
apogee height: 825 km
right ascension of ascending node: 121.1743°
argument of perigee: 119.0547°
revolutions per day: 14.22100189
mean anomaly at epoch: 241.1663°
orbit number at epoch: 71640

The dashed part of the orbit path shows where the satellite is in the earth's shadow,  

DLR